This is the latest recevied weather packets stored in our database for station/object PY2AQN-13. If no packets are shown the sender has not sent any weather packets the latest 10 day(s).
| Time | Temp. | Humidity | Pressure | Rain* | Wind** | Luminosity | Snow |
|---|---|---|---|---|---|---|---|
| 1787617184 | 17.22° C | 76% | 1019.2 hPa | - | - | - | - |
| 1787616584 | 17.22° C | 76% | 1019.1 hPa | - | - | - | - |
| 1787615984 | 17.22° C | 76% | 1019.2 hPa | - | - | - | - |
| 1787615384 | 17.22° C | 76% | 1019 hPa | - | - | - | - |
| 1787614784 | 17.22° C | 76% | 1018.9 hPa | - | - | - | - |
| 1787614184 | 17.22° C | 76% | 1018.6 hPa | - | - | - | - |
| 1787613584 | 17.22° C | 75% | 1018.6 hPa | - | - | - | - |
| 1787612984 | 17.78° C | 75% | 1018.3 hPa | - | - | - | - |
| 1787612384 | 17.22° C | 75% | 1018.3 hPa | - | - | - | - |
| 1787611784 | 17.22° C | 75% | 1018.3 hPa | - | - | - | - |
| 1787611184 | 17.78° C | 75% | 1018.2 hPa | - | - | - | - |
| 1787610584 | 17.78° C | 73% | 1018 hPa | - | - | - | - |
| 1787609984 | 17.78° C | 73% | 1018 hPa | - | - | - | - |
| 1787609384 | 18.33° C | 73% | 1017.9 hPa | - | - | - | - |
| 1787608784 | 18.33° C | 72% | 1017.9 hPa | - | - | - | - |
| 1787608184 | 18.33° C | 73% | 1017.9 hPa | - | - | - | - |
| 1787607584 | 18.33° C | 73% | 1017.7 hPa | - | - | - | - |
| 1787606984 | 18.33° C | 72% | 1017.5 hPa | - | - | - | - |
| 1787606384 | 18.89° C | 71% | 1017.3 hPa | - | - | - | - |
| 1787605784 | 18.89° C | 71% | 1017.4 hPa | - | - | - | - |
| 1787605184 | 18.89° C | 71% | 1017.4 hPa | - | - | - | - |
| 1787604584 | 19.44° C | 69% | 1017.2 hPa | - | - | - | - |
| 1787603984 | 20.56° C | 65% | 1017 hPa | - | - | - | - |
| 1787603384 | 20.56° C | 65% | 1016.9 hPa | - | - | - | - |
| 1787602784 | 20.56° C | 64% | 1017 hPa | - | - | - | - |
* Rain since midnight (hover to see other rain measurements)
** Current wind speed in m/s (hover to see current wind gust speed)